Tracking 30058 objects as of 9-Dec-2024
HD Live streaming from Space Station
objects crossing your sky now

USA 252

Track USA 252 now!
USA 252 is classified as:


NORAD ID: 39751
Int'l Code: 2014-027A
Perigee: 35,778.3 km
Apogee: 35,810.1 km
Inclination: 2.7 °
Period: 1,436.1 minutes
Semi major axis: 42165 km
RCS: Unknown
Launch date: May 22, 2014
Source: United States (US)
Launch site: AIR FORCE EASTERN TEST RANGE (AFETR)

USA 252 is a secretive spacecraft payload believed to be part of the Satellite Data System (SDS) network.
Your satellite tracking list
Your tracking list is empty




NASA's NSSDC Master Catalog

Two Line Element Set (TLE):
1 39751U 14027A   20169.22222530 0.00000000  00000-0  00000-0 0    08
2 39751   2.7245 155.9004 0003771 352.9836   7.0117  1.00270000    01
Source of the keplerian elements: McCants